{"data":{"norad_id":62774,"intl_designator":"2025-015S","name":"STARLINK-33574","alt_names":[],"object_type":"PAYLOAD","status":"ACTIVE","operator":null,"country":"US","launch_date":"2025-01-21","launch_site_code":"AFWTR","launch_vehicle":null,"mission":null,"orbit_class":"UNKNOWN","rcs_meters":null,"size_class":null,"mass_kg":null,"dimensions":null,"purposes":["comms"],"wikipedia_slug":null,"has_3d_model":false,"image_url":null,"decayed_at":null,"tle_current":{"epoch":"2026-09-21T20:31:12.276480Z","epoch_age_seconds":54263,"freshness":"FRESH","line1":"1 62774U 25015S   26264.85500320  .00011254  00000+0  34382-3 0  9997","line2":"2 62774  53.1577 127.1284 0001105  90.0203 270.0926 15.34390815 94291","mean_motion":15.34390815,"eccentricity":0.0001105,"inclination_deg":53.1577,"raan_deg":127.1284,"arg_perigee_deg":90.0203,"mean_anomaly_deg":270.0926,"bstar":0.00034382,"rev_number":9429,"period_min":93.848319862368,"perigee_km":461.97462423576,"apogee_km":463.48645596212,"semimajor_km":6840.8675400989,"source":"CELESTRAK","updated_at":"2026-09-22T09:00:49.663877Z"}}}